sat.trackr.live / text

‹ back to catalog

STARLINK-36761

NORAD 67867 · 2026-034T

PAYLOAD ACTIVE UNKNOWN

§ Identity

Operator
Country
US
Launch date
2026-02-20
Launch site
AFETR
Launch vehicle
Mass (kg)
RCS (m²)

Purposes: comms

External: N2YO · Heavens-Above · Gunter

§ Orbital elements

Epoch: 2026-05-25T03:51:50.895072Z

Period
94.11 min
Inclination
53.1584°
Eccentricity
0.0001237
Mean motion
15.30203327 rev/d
Perigee alt
474.4 km
Apogee alt
476.1 km
Semi-major
6,853.3 km
B*
4.4436e-4
RAAN
209.0472°
Arg perigee
87.4727°
Mean anomaly
272.6415°
Rev number
1,574

§ Raw data

STARLINK-367611 67867U 26034T   26145.16100573  .00012826  00000+0  44436-3 0  99922 67867  53.1584 209.0472 0001237  87.4727 272.6415 15.30203327 15744

JSON: /api/v1/satellites/67867 · /tle

For live sub-satellite position, see the globe view (requires WebGL).

§ Visibility from observer

Set your observer location to see the next 7 days of passes ≥ 10°. The values pass through the URL so the page stays shareable.

No JS? Fill the form by hand. The geolocation button needs JavaScript.